[[{"header":{"parameterUnit":"m.s-1","parameterCategory":1,"la1":30.2991,"la2":30.254,"lo1":-89.0895,"lo2":-89.0444,"dy":0.0017,"dx":0.0017,"nx":28,"ny":28,"refTime":"2025-01-04T09:00:00:Z","depth":0,"parameterNumber":2,"parameterNumberName":"U-component_of_WINDS"},"data":[0,0,0,0,0,0,0,0,0,0,0,0,0,0,0,0,0,0,0,0,0,0,0,0,0,0,0,0,0,0,0,0,0,0,0,0,0,0,0,0,0,0,0,0,0,0,0,0,0,0,0,0,0,0,0,0,0,0,-0.6852,-0.6852,0,-0.687,-0.687,-0.687,-0.6833,-0.6832,-0.683,-0.6829,-0.6852,-0.6854,-0.6855,0,0,0,0,0,0,0,0,0,0,0,0,0,-0.6788,-0.6789,-0.6852,-0.6852,-0.6852,-0.687,-0.687,-0.687,-0.6833,-0.6832,-0.683,-0.6829,-0.6851,-0.6853,-0.6856,0,0,0,0,0,0,0,0,0,0,0,0,0,-0.6812,-0.6789,-0.6852,-0.6835,-0.6834,-0.687,-0.687,-0.6871,-0.6833,-0.6832,-0.683,-0.6828,-0.6851,-0.6853,-0.6856,-0.6909,0,0,-0.6864,-0.6865,0,0,0,0,0,0,0,0,-0.681,-0.6814,-0.6838,-0.6837,-0.6835,-0.6847,-0.6856,-0.6884,-0.6834,-0.6834,-0.6829,-0.6827,-0.6852,-0.6855,-0.6862,-0.691,-0.6911,-0.6864,-0.6866,-0.6867,-0.6868,0,0,0,0,0,0,0,-0.6809,-0.6813,-0.6859,-0.6838,-0.6837,-0.6828,-0.683,-0.6861,-0.6853,-0.6834,-0.6831,-0.6833,-0.6851,-0.686,-0.6862,-0.6912,-0.6864,-0.6866,-0.6868,-0.6869,-0.7005,-0.7007,0,0,0,0,0,0,-0.6809,-0.6812,-0.6858,-0.686,-0.6818,-0.6831,-0.6833,-0.6845,-0.6853,-0.6852,-0.6835,-0.6832,-0.6856,-0.6859,-0.6863,-0.6927,-0.6867,-0.6869,-0.6871,-0.7003,-0.7006,-0.7008,0,0,0,0,0,0,-0.6807,-0.6813,-0.6858,-0.6835,-0.684,-0.6834,-0.6849,-0.6847,-0.6855,-0.6854,-0.6853,-0.6845,-0.6855,-0.6859,-0.6898,-0.6927,-0.6871,-0.6873,-0.7001,-0.7004,-0.7007,-0.7055,0,0,0,0,0,0,-0.6806,-0.6813,-0.6833,-0.6836,-0.6841,-0.6892,-0.685,-0.6848,-0.6859,-0.6855,-0.6863,-0.6862,-0.6854,-0.6894,-0.6901,-0.693,-0.6875,-0.6998,-0.7002,-0.7006,-0.7051,-0.7059,-0.7067,0,0,0,0,0,-0.6804,-0.6846,-0.6834,-0.684,-0.6866,-0.6893,-0.6897,-0.6885,-0.6862,-0.6882,-0.6881,-0.6862,-0.6922,-0.6899,-0.6905,-0.6936,-0.6996,-0.7001,-0.7006,-0.7047,-0.7058,-0.7066,0,0,0,0,0,0,-0.6848,-0.6846,-0.6833,-0.6877,-0.6885,-0.6887,-0.6912,-0.6896,-0.6912,-0.6908,-0.6893,-0.6895,-0.6937,-0.694,-0.6913,-0.6988,-0.6956,-0.6962,-0.6985,-0.6995,-0.7003,-0.7002,-0.6877,0,0,0,0,0,-0.6863,-0.6884,-0.6882,-0.6921,-0.6926,-0.6918,-0.693,-0.692,-0.6928,-0.6932,-0.6934,-0.6944,-0.6966,-0.698,-0.6999,-0.705,-0.7052,-0.7075,-0.7082,-0.7089,-0.7095,-0.7123,-0.7133,-0.7023,-0.7023,-0.7023,0,0,-0.6894,-0.6896,-0.6911,-0.693,-0.6936,-0.696,-0.6922,-0.6948,-0.6966,-0.6937,-0.6973,-0.6975,-0.6985,-0.703,-0.705,-0.7034,-0.7126,-0.7095,-0.71,-0.7103,-0.7129,-0.7139,-0.7149,-0.7026,-0.7026,-0.7025,0,0,-0.6964,-0.6966,-0.7,-0.7005,-0.7013,-0.7008,-0.7016,-0.7019,-0.7019,-0.7055,-0.7033,-0.7054,-0.7091,-0.71,-0.7109,-0.718,-0.7164,-0.7187,-0.7229,-0.7257,-0.7265,-0.7273,-0.73,-0.731,-0.7193,-0.7193,-0.7193,0,-0.7002,-0.7036,-0.702,-0.7048,-0.7058,-0.703,-0.7064,-0.7071,-0.7086,-0.7094,-0.7075,-0.712,-0.7125,-0.7172,-0.7189,-0.7197,-0.7207,-0.7187,-0.7265,-0.7273,-0.728,-0.7305,-0.7315,-0.7196,-0.7195,-0.7195,-0.7195,0,-0.7084,-0.7107,-0.7134,-0.7147,-0.7159,-0.7191,-0.718,-0.7195,-0.7183,-0.718,-0.7217,-0.7222,-0.7242,-0.7252,-0.7241,-0.7298,-0.7288,-0.7267,-0.7235,-0.7293,-0.7317,-0.7327,-0.72,-0.7199,-0.7198,-0.7197,0,0,-0.7184,-0.7186,-0.7196,-0.7202,-0.7208,-0.7227,-0.7257,-0.7275,-0.7289,-0.7299,-0.7326,-0.7356,-0.7337,-0.7348,-0.7337,-0.7361,-0.7419,-0.7338,-0.7338,-0.7354,-0.7483,-0.75,-0.7512,-0.7407,-0.7409,-0.741,-0.7483,0,-0.7254,-0.7305,-0.729,-0.7342,-0.7364,-0.7337,-0.7364,-0.7371,-0.7368,-0.7388,-0.7385,-0.7408,-0.738,-0.7386,-0.7408,-0.7407,-0.7445,-0.7402,-0.7433,-0.7435,-0.7434,-0.7524,-0.7542,-0.761,-0.7492,-0.7493,-0.7495,0,-0.7343,-0.7355,-0.7409,-0.7411,-0.742,-0.7444,-0.7459,-0.7478,-0.7485,-0.7482,-0.7493,-0.7478,-0.7508,-0.7474,-0.7517,-0.7488,-0.7499,-0.7501,-0.7503,-0.7508,-0.747,-0.7533,-0.7632,-0.7643,-0.7509,-0.7508,-0.7507,0,-0.7413,-0.7443,-0.7479,-0.7484,-0.7487,-0.7505,-0.7507,-0.7513,-0.7525,-0.7538,-0.7546,-0.7564,-0.7574,-0.7589,-0.7579,-0.7554,-0.7624,-0.7589,-0.7624,-0.7624,-0.7642,-0.7641,-0.7746,-0.7646,-0.7646,-0.7646,-0.7645,0,-0.7494,-0.7528,-0.751,-0.7533,-0.757,-0.7554,-0.7592,-0.7591,-0.7596,-0.7619,-0.7596,-0.7618,-0.7603,-0.7624,-0.7617,-0.7655,-0.7659,-0.7658,-0.7656,-0.7661,-0.7662,-0.7671,-0.7667,-0.7648,-0.7648,-0.7647,-0.7647,0,-0.758,-0.7569,-0.7606,-0.7605,-0.7606,-0.7634,-0.7634,-0.7655,-0.765,-0.7679,-0.7685,-0.7677,-0.7701,-0.7692,-0.7717,-0.7712,-0.7761,-0.7752,-0.7758,-0.7757,-0.7793,-0.7791,-0.7909,-0.7925,-0.7812,-0.7813,-0.7814,0,-0.7633,-0.7659,-0.766,-0.7673,-0.7676,-0.7697,-0.7709,-0.7693,-0.7706,-0.7716,-0.7737,-0.7758,-0.7774,-0.7813,-0.7811,-0.783,-0.7823,-0.7863,-0.7826,-0.783,-0.7826,-0.7825,-0.7828,-0.7871,-0.7872,-0.7874,-0.7874,0,-0.773,-0.7723,-0.774,-0.7755,-0.7769,-0.778,-0.779,-0.7802,-0.7786,-0.7802,-0.7825,-0.7838,-0.7863,-0.7885,-0.7902,-0.7905,-0.7889,-0.7885,-0.7895,-0.7902,-0.7906,-0.7906,-0.7781,-0.7884,-0.7883,-0.7882,-0.7882,-0.7881,-0.7803,-0.7824,-0.7828,-0.7848,-0.7853,-0.7862,-0.7882,-0.7879,-0.7897,-0.7916,-0.7905,-0.7932,-0.7939,-0.796,-0.7966,-0.7988,-0.7972,-0.7986,-0.799,-0.7994,-0.7999,-0.79,-0.7991,-0.799,-0.799,-0.799,-0.799,0,-0.79,-0.7901,-0.7918,-0.7932,-0.7948,-0.7927,-0.7936,-0.7951,-0.7975,-0.7982,-0.7998,-0.8025,-0.8046,-0.8045,-0.8064,-0.8082,-0.8075,-0.8088,-0.8088,-0.8089,-0.8011,-0.8002,-0.8094,-0.8094,-0.8094,-0.8093,-0.8093,-0.8093,-0.7953,-0.7988,-0.7982,-0.802,-0.8021,-0.8046,-0.8053,-0.8062,-0.8068,-0.8098,-0.8115,-0.8113,-0.8117,-0.8137,-0.8155,-0.8154,-0.8164,-0.818,-0.8177,-0.8105,-0.8094,-0.8085,-0.8076,-0.8182,-0.8182,-0.8253,-0.8254,-0.8254]},{"header":{"parameterUnit":"m.s-1","parameterCategory":1,"la1":30.2991,"la2":30.254,"lo1":-89.0895,"lo2":-89.0444,"dy":0.0017,"dx":0.0017,"nx":28,"ny":28,"refTime":"2025-01-04T09:00:00:Z","depth":0,"parameterNumber":3,"parameterNumberName":"V-component_of_WINDS"},"data":[0,0,0,0,0,0,0,0,0,0,0,0,0,0,0,0,0,0,0,0,0,0,0,0,0,0,0,0,0,0,0,0,0,0,0,0,0,0,0,0,0,0,0,0,0,0,0,0,0,0,0,0,0,0,0,0,0,0,-3.367,-3.3671,0,-3.3747,-3.3748,-3.3749,-3.3703,-3.3701,-3.3699,-3.3697,-3.3775,-3.3779,-3.3783,0,0,0,0,0,0,0,0,0,0,0,0,0,-3.3485,-3.3489,-3.367,-3.3671,-3.3672,-3.3747,-3.3748,-3.3749,-3.3703,-3.3701,-3.3698,-3.3696,-3.3773,-3.3778,-3.3783,0,0,0,0,0,0,0,0,0,0,0,0,0,-3.3564,-3.349,-3.367,-3.3659,-3.3658,-3.3747,-3.3748,-3.3749,-3.3704,-3.3701,-3.3697,-3.3694,-3.3772,-3.3778,-3.3784,-3.3888,0,0,-3.3803,-3.3806,0,0,0,0,0,0,0,0,-3.356,-3.3571,-3.3659,-3.3659,-3.3659,-3.3712,-3.3711,-3.3796,-3.3705,-3.3687,-3.3696,-3.3693,-3.3757,-3.3764,-3.3785,-3.3892,-3.3895,-3.3803,-3.3807,-3.381,-3.3812,0,0,0,0,0,0,0,-3.3554,-3.3568,-3.3701,-3.3661,-3.3661,-3.365,-3.3657,-3.3727,-3.3739,-3.3688,-3.3685,-3.3694,-3.3756,-3.378,-3.3787,-3.3896,-3.3803,-3.3809,-3.3813,-3.3815,-3.4093,-3.4096,0,0,0,0,0,0,-3.355,-3.3563,-3.3698,-3.3703,-3.36,-3.3656,-3.3664,-3.3698,-3.3738,-3.3741,-3.3697,-3.3692,-3.3771,-3.378,-3.3789,-3.3915,-3.381,-3.3816,-3.3819,-3.4089,-3.4094,-3.4098,0,0,0,0,0,0,-3.3546,-3.3562,-3.3695,-3.3632,-3.3648,-3.3662,-3.3701,-3.3702,-3.3725,-3.3745,-3.3747,-3.3719,-3.3768,-3.3781,-3.3864,-3.3917,-3.3818,-3.3824,-3.4085,-3.4091,-3.4096,-3.4166,0,0,0,0,0,0,-3.3541,-3.3561,-3.3601,-3.3634,-3.3652,-3.3769,-3.3704,-3.3706,-3.3736,-3.373,-3.3766,-3.3769,-3.3767,-3.3855,-3.387,-3.3924,-3.3829,-3.408,-3.4087,-3.4094,-3.4159,-3.4173,-3.4185,0,0,0,0,0,-3.3534,-3.3617,-3.3603,-3.3619,-3.3702,-3.3772,-3.3782,-3.3778,-3.374,-3.378,-3.3794,-3.3768,-3.3909,-3.3864,-3.3881,-3.3937,-3.4077,-3.4085,-3.4093,-3.4153,-3.417,-3.4185,0,0,0,0,0,0,-3.359,-3.3621,-3.3606,-3.3701,-3.3734,-3.3764,-3.3814,-3.3796,-3.384,-3.3833,-3.3825,-3.3834,-3.3921,-3.3937,-3.3887,-3.404,-3.3987,-3.3999,-3.4027,-3.4043,-3.4056,-3.4051,-3.3834,0,0,0,0,0,-3.3613,-3.3667,-3.3692,-3.3774,-3.3791,-3.38,-3.383,-3.3824,-3.3858,-3.3871,-3.389,-3.3924,-3.3976,-3.401,-3.4059,-3.4161,-3.4169,-3.4208,-3.4221,-3.4231,-3.4242,-3.4298,-3.4316,-3.4125,-3.4125,-3.4125,0,0,-3.3662,-3.3686,-3.372,-3.3786,-3.381,-3.3867,-3.3812,-3.3874,-3.3916,-3.3881,-3.3961,-3.3976,-3.4013,-3.4107,-3.4149,-3.4123,-3.4297,-3.4242,-3.425,-3.4255,-3.4309,-3.4327,-3.4343,-3.413,-3.4129,-3.4128,0,0,-3.378,-3.3803,-3.3874,-3.39,-3.3939,-3.3944,-3.3961,-3.3994,-3.4003,-3.4084,-3.4059,-3.4109,-3.4198,-3.4226,-3.4252,-3.4382,-3.436,-3.4398,-3.4466,-3.4521,-3.4537,-3.455,-3.4597,-3.4614,-3.4408,-3.4408,-3.4408,0,-3.3835,-3.392,-3.3913,-3.3978,-3.4008,-3.3979,-3.4051,-3.4077,-3.4129,-3.4151,-3.4121,-3.4233,-3.4256,-3.4356,-3.4388,-3.441,-3.443,-3.4394,-3.4535,-3.4548,-3.4561,-3.4606,-3.4623,-3.4412,-3.4412,-3.4412,-3.4411,0,-3.3987,-3.4046,-3.4099,-3.4151,-3.4187,-3.4255,-3.4259,-3.4296,-3.4287,-3.4296,-3.4379,-3.4406,-3.446,-3.4483,-3.4474,-3.4583,-3.4565,-3.4535,-3.4482,-3.4583,-3.4626,-3.4643,-3.4419,-3.4417,-3.4416,-3.4415,0,0,-3.4141,-3.4189,-3.4209,-3.4233,-3.4274,-3.4319,-3.4386,-3.444,-3.4472,-3.4509,-3.4566,-3.4643,-3.4616,-3.4645,-3.464,-3.4688,-3.4791,-3.4652,-3.4653,-3.4678,-3.4913,-3.4936,-3.4956,-3.4776,-3.478,-3.4782,-3.491,0,-3.4262,-3.438,-3.4377,-3.4487,-3.4542,-3.4516,-3.4574,-3.4606,-3.4616,-3.4665,-3.4676,-3.4731,-3.469,-3.4708,-3.4754,-3.4768,-3.4838,-3.4759,-3.483,-3.4833,-3.4822,-3.4978,-3.5002,-3.5121,-3.4926,-3.4929,-3.4931,0,-3.4419,-3.4463,-3.4578,-3.4612,-3.4635,-3.4688,-3.4737,-3.4783,-3.4819,-3.4823,-3.4857,-3.4844,-3.4913,-3.4857,-3.4952,-3.4899,-3.4928,-3.4939,-3.4944,-3.4951,-3.4888,-3.499,-3.5159,-3.5177,-3.4957,-3.4955,-3.4953,0,-3.4522,-3.4609,-3.469,-3.471,-3.4751,-3.479,-3.4808,-3.4841,-3.4873,-3.4916,-3.4938,-3.4988,-3.5016,-3.5056,-3.5057,-3.5016,-3.5154,-3.5098,-3.516,-3.516,-3.519,-3.5189,-3.5368,-3.5208,-3.5207,-3.5207,-3.5207,0,-3.4658,-3.473,-3.4736,-3.4786,-3.4866,-3.4862,-3.4941,-3.4957,-3.4986,-3.5038,-3.5018,-3.5068,-3.5067,-3.5117,-3.5119,-3.5198,-3.5211,-3.5217,-3.5216,-3.5219,-3.5219,-3.5238,-3.523,-3.5212,-3.5211,-3.521,-3.5209,0,-3.4786,-3.4793,-3.488,-3.4912,-3.4922,-3.4979,-3.5007,-3.5055,-3.5063,-3.513,-3.5146,-3.5159,-3.5218,-3.5223,-3.5291,-3.5292,-3.5389,-3.5379,-3.5377,-3.5376,-3.5438,-3.5433,-3.5637,-3.5664,-3.5485,-3.5487,-3.5489,0,-3.4873,-3.4928,-3.4966,-3.5,-3.5021,-3.5076,-3.511,-3.5108,-3.5144,-3.5189,-3.5232,-3.5288,-3.5334,-3.5429,-3.5446,-3.5498,-3.549,-3.5558,-3.5498,-3.5499,-3.5492,-3.549,-3.5496,-3.557,-3.5572,-3.5573,-3.5575,0,-3.5027,-3.5028,-3.5077,-3.5128,-3.5169,-3.5209,-3.5246,-3.5275,-3.5278,-3.5319,-3.5379,-3.5415,-3.5485,-3.5542,-3.5593,-3.5613,-3.5595,-3.5593,-3.5611,-3.5615,-3.5612,-3.5615,-3.541,-3.5589,-3.5587,-3.5586,-3.5586,-3.5585,-3.5138,-3.5186,-3.5221,-3.5276,-3.5304,-3.534,-3.5387,-3.5402,-3.5452,-3.5509,-3.5505,-3.5572,-3.5607,-3.5674,-3.5698,-3.5751,-3.5728,-3.5753,-3.5759,-3.5766,-3.5773,-3.5603,-3.576,-3.5759,-3.5759,-3.5759,-3.5758,0,-3.5291,-3.5313,-3.5364,-3.5417,-3.5461,-3.5441,-3.5481,-3.552,-3.5579,-3.5613,-3.5659,-3.5729,-3.5784,-3.5805,-3.586,-3.5898,-3.5891,-3.5913,-3.591,-3.5915,-3.5789,-3.5769,-3.5917,-3.5917,-3.5917,-3.5917,-3.5917,-3.5917,-3.5376,-3.5457,-3.5463,-3.5557,-3.5578,-3.5644,-3.5669,-3.5702,-3.573,-3.5809,-3.5855,-3.5868,-3.5898,-3.5955,-3.6005,-3.601,-3.6031,-3.6057,-3.6058,-3.594,-3.5924,-3.5909,-3.589,-3.6061,-3.6061,-3.618,-3.6181,-3.6182]}]]